THORAD AGENA D DEB, 4919

Orbit data source: Space-Track

THORAD AGENA D DEB, 4919 is space debris in SSO originally from a launch on Wed, 08 Apr 1970 UTC launched from the Air Force Western Test Range (AFWTR). Debris objects in space refer to the collection of defunct objects orbiting the Earth. Examples of debris include non-operational satellites, rocket bodies, and fragments generated from explosions, collisions, or faulty payload assembly.

Loading next visibility...
Identifier
4919, 1970-025FR
Orbit
SSO
Country
Flag of USUS
Related business
Manufacturer
Unknown
Mission
Spacecraft
Bus & Motor
Unknown
Mass
Unknown
Launch date (UTC)
1970-04-08 (56 years ago)
Launch vehicle
Unknown
Launch site
Air Force Western Test Range (AFWTR)
Object type
Payload
Rocket body
Debris
Shape & HBR
Unknown shape, 0.1 m
Radar Cross Section
Small (<0.1 m²)

Expand to show TLE details & history
Last TLE update: 2 days ago

TLE from 2 days ago
0 THORAD AGENA D DEB
1 04919U 70025FR  26035.50332413  .00002715  00000-0  13059-2 0  9999
2 04919 100.0592 118.6731 0040851 104.7882 255.7821 14.19397929831610
Epoch: 2026-02-04T12:04Z
TLE epoch observation values (Epoch: 2026-02-04T12:04:47.204Z)
Latitude
-0.00004°
Longitude
162.80745°
Altitude
837.601 km
Speed
7.43 km/s
True Right ascension
07h 54m 41s
True Declination
0° 00' 00"
Sunlit
Object was in full shadow at epoch
Visualization orbit readout
Latitude
Unknown
Longitude
Unknown
Altitude
Unknown
Speed
Unknown
Apparent Right ascension
Unknown
Apparent Declination
Unknown
Sunlit
N/A
Visualization observer readout
Local Sidereal Time
04:19:44
Azimuth
Unknown
Elevation
Unknown
Doppler factor
Unknown
Orbital elements
Apogee altitude
854.042 km
Perigee altitude
795.194 km
Semi-major axis
7,202.755 km
Eccentricity
0.00409
Inclination
100.0592°
RAAN
118.6731°
Arg. of periapsis
104.7882°
True anomaly
255.32889°
Mean anomaly
255.7821°
Eccentric anomaly
255.55544°
Mean motion
3.55055 °/min
Orbital period
101.39 mins
BSTAR
0.0013059
Loading maneuver chart data...
Computing Atmospheric mass density...

Documentation

Showing up to 5 results
|